EIN159 EGLL-EIDW

Flight info

Callsign EIN159
Flight time N/A
Altitude 24000
Route CPT L9 DIDZA N14 BIBPE/N0427F340 DCT OKTAD DCT MEDOG DCT KRAGY DCT PEMOB DCT LEMGU M17 VATRY VATRY3R
Aircraft A320/M-SDE3FGHIRWY/LB1

Departure

Time N/A
Airport London Heathrow Airport (EGLL)

Arrival

Time 2026-05-04 12:47
Airport Dublin Airport (EIDW)
Time Latitude Longitude Altitude Speed Heading
2026-05-04 12:17 51.98074 -3.78852 34036 ft 446 kts 282°
2026-05-04 12:17 51.98667 -3.83781 34018 ft 446 kts 282°
2026-05-04 12:18 51.99886 -3.93678 34020 ft 448 kts 283°
2026-05-04 12:18 52.01121 -4.03577 34016 ft 449 kts 283°
2026-05-04 12:19 52.02351 -4.13540 34025 ft 450 kts 283°
2026-05-04 12:19 52.03562 -4.23533 34027 ft 451 kts 283°
2026-05-04 12:20 52.04772 -4.33531 34031 ft 451 kts 283°
2026-05-04 12:20 52.05971 -4.43542 34035 ft 452 kts 283°
2026-05-04 12:21 52.07160 -4.53573 34032 ft 453 kts 283°
2026-05-04 12:21 52.08346 -4.63638 34027 ft 453 kts 283°
2026-05-04 12:22 52.09527 -4.73713 34035 ft 454 kts 283°
2026-05-04 12:22 52.10698 -4.83804 34037 ft 454 kts 283°
2026-05-04 12:23 52.11275 -4.88862 33866 ft 456 kts 283°
2026-05-04 12:23 52.11851 -4.93937 33592 ft 456 kts 283°
2026-05-04 12:23 52.12431 -4.99022 33319 ft 457 kts 283°
2026-05-04 12:23 52.13033 -5.04094 33047 ft 455 kts 287°
2026-05-04 12:24 52.14015 -5.08922 32554 ft 446 kts 298°
2026-05-04 12:24 52.15507 -5.13280 31987 ft 437 kts 310°
2026-05-04 12:24 52.17395 -5.16991 31437 ft 426 kts 321°
2026-05-04 12:24 52.19616 -5.20070 30966 ft 413 kts 332°
2026-05-04 12:25 52.22048 -5.22423 30468 ft 402 kts 341°
2026-05-04 12:25 52.24545 -5.24461 29953 ft 399 kts 341°
2026-05-04 12:25 52.27011 -5.26479 29454 ft 395 kts 340°
2026-05-04 12:25 52.29450 -5.28480 28989 ft 390 kts 340°
2026-05-04 12:26 52.31860 -5.30464 28546 ft 385 kts 340°
2026-05-04 12:26 52.34243 -5.32430 28097 ft 381 kts 340°
2026-05-04 12:26 52.36596 -5.34377 27670 ft 378 kts 340°
2026-05-04 12:26 52.38931 -5.36312 27245 ft 374 kts 340°
2026-05-04 12:27 52.41237 -5.38216 26812 ft 370 kts 339°
2026-05-04 12:27 52.43522 -5.40101 26407 ft 365 kts 339°
2026-05-04 12:27 52.45785 -5.41969 26102 ft 366 kts 339°
2026-05-04 12:27 52.48085 -5.43862 25949 ft 374 kts 339°
2026-05-04 12:28 52.50382 -5.45976 25368 ft 381 kts 329°
2026-05-04 12:28 52.52421 -5.48718 24984 ft 379 kts 325°
2026-05-04 12:28 52.54431 -5.51508 24538 ft 376 kts 324°
2026-05-04 12:28 52.56421 -5.54292 24089 ft 374 kts 324°
2026-05-04 12:29 52.58391 -5.57058 23820 ft 373 kts 324°
2026-05-04 12:29 52.60359 -5.59827 23572 ft 372 kts 324°
2026-05-04 12:29 52.62324 -5.62591 23301 ft 371 kts 324°
2026-05-04 12:29 52.64279 -5.65346 23000 ft 369 kts 323°
2026-05-04 12:30 52.66226 -5.68094 22729 ft 368 kts 323°
2026-05-04 12:30 52.68161 -5.70834 22459 ft 366 kts 323°
2026-05-04 12:30 52.70087 -5.73562 22189 ft 364 kts 323°
2026-05-04 12:30 52.72008 -5.76276 21926 ft 363 kts 323°
2026-05-04 12:31 52.73918 -5.78975 21660 ft 361 kts 323°
2026-05-04 12:31 52.75797 -5.81637 21383 ft 358 kts 322°
2026-05-04 12:31 52.77699 -5.84342 20951 ft 355 kts 322°
2026-05-04 12:31 52.79541 -5.86963 20487 ft 353 kts 322°
2026-05-04 12:32 52.81399 -5.89606 20044 ft 352 kts 322°
2026-05-04 12:32 52.85096 -5.94877 19145 ft 350 kts 321°
2026-05-04 12:32 52.86934 -5.97508 18694 ft 349 kts 321°
2026-05-04 12:33 52.88769 -6.00136 18231 ft 348 kts 321°
2026-05-04 12:33 52.90598 -6.02750 17773 ft 346 kts 320°
2026-05-04 12:33 52.92415 -6.05346 17336 ft 344 kts 321°
2026-05-04 12:33 52.94218 -6.07929 16907 ft 342 kts 320°
2026-05-04 12:34 52.96009 -6.10504 16467 ft 340 kts 321°
2026-05-04 12:34 52.97786 -6.13067 16057 ft 338 kts 321°
2026-05-04 12:34 52.99554 -6.15615 15645 ft 336 kts 320°
2026-05-04 12:34 53.01316 -6.18155 15228 ft 334 kts 320°
2026-05-04 12:35 53.03058 -6.20668 14800 ft 333 kts 320°
2026-05-04 12:35 53.04813 -6.23200 14391 ft 332 kts 320°
2026-05-04 12:35 53.06551 -6.25713 13977 ft 330 kts 320°
2026-05-04 12:35 53.08282 -6.28222 13460 ft 330 kts 320°
2026-05-04 12:36 53.10005 -6.30722 13028 ft 327 kts 320°
2026-05-04 12:36 53.11711 -6.33195 12617 ft 323 kts 320°
2026-05-04 12:36 53.13396 -6.35639 12202 ft 320 kts 320°
2026-05-04 12:36 53.15059 -6.38057 11783 ft 317 kts 319°
2026-05-04 12:37 53.16714 -6.40471 11372 ft 314 kts 319°
2026-05-04 12:37 53.18351 -6.42862 10950 ft 312 kts 319°
2026-05-04 12:37 53.19984 -6.45252 10519 ft 310 kts 319°
2026-05-04 12:37 53.21603 -6.47621 10108 ft 309 kts 320°
2026-05-04 12:38 53.23206 -6.49968 9644 ft 302 kts 319°
2026-05-04 12:38 53.24746 -6.52218 9238 ft 287 kts 320°
2026-05-04 12:38 53.26227 -6.54382 8826 ft 280 kts 319°
2026-05-04 12:38 53.27683 -6.56517 8436 ft 278 kts 319°
2026-05-04 12:39 53.29131 -6.58641 8016 ft 276 kts 319°
2026-05-04 12:39 53.30537 -6.60709 7615 ft 263 kts 319°
2026-05-04 12:39 53.31880 -6.62689 7224 ft 254 kts 319°
2026-05-04 12:39 53.33189 -6.64618 7057 ft 250 kts 319°
2026-05-04 12:40 53.34494 -6.66539 6970 ft 250 kts 319°
2026-05-04 12:40 53.35878 -6.68284 6871 ft 249 kts 333°
2026-05-04 12:40 53.37516 -6.69199 6650 ft 251 kts 351°
2026-05-04 12:40 53.39260 -6.69187 5967 ft 251 kts
2026-05-04 12:41 53.40979 -6.68900 5411 ft 246 kts
2026-05-04 12:41 53.42653 -6.68631 5191 ft 234 kts
2026-05-04 12:41 53.44129 -6.67902 5074 ft 216 kts 32°
2026-05-04 12:41 53.45161 -6.66184 4950 ft 208 kts 59°
2026-05-04 12:42 53.45591 -6.63871 4579 ft 211 kts 88°
2026-05-04 12:42 53.45490 -6.61433 4255 ft 207 kts 93°
2026-05-04 12:42 53.45363 -6.59068 3988 ft 201 kts 92°
2026-05-04 12:42 53.45242 -6.56748 3673 ft 198 kts 93°
2026-05-04 12:43 53.45123 -6.54480 3409 ft 192 kts 92°
2026-05-04 12:43 53.45008 -6.52272 3155 ft 188 kts 92°
2026-05-04 12:43 53.44893 -6.50090 2893 ft 187 kts 92°
2026-05-04 12:43 53.44781 -6.47956 2644 ft 186 kts 92°
2026-05-04 12:44 53.44667 -6.45805 2396 ft 183 kts 92°
2026-05-04 12:44 53.44554 -6.43675 2141 ft 179 kts 92°
2026-05-04 12:44 53.44448 -6.41680 1904 ft 168 kts 93°
2026-05-04 12:44 53.44347 -6.39809 1699 ft 152 kts 92°
2026-05-04 12:45 53.44257 -6.38130 1486 ft 139 kts 92°
2026-05-04 12:45 53.44172 -6.36541 1292 ft 133 kts 92°
2026-05-04 12:45 53.44091 -6.35022 1110 ft 131 kts 92°
2026-05-04 12:45 53.44011 -6.33534 937 ft 131 kts 91°
2026-05-04 12:46 53.43929 -6.32027 740 ft 131 kts 93°
2026-05-04 12:46 53.43849 -6.30517 577 ft 130 kts 94°
2026-05-04 12:46 53.43768 -6.29015 370 ft 129 kts 94°
2026-05-04 12:46 53.43687 -6.27528 218 ft 125 kts 93°
2026-05-04 12:47 53.43621 -6.26328 213 ft 76 kts 96°
2026-05-04 12:47 53.43587 -6.25715 214 ft 35 kts 95°
2026-05-04 12:47 53.43557 -6.25359 212 ft 24 kts 107°
2026-05-04 12:47 53.43506 -6.25163 213 ft 17 kts 118°
2026-05-04 12:48 53.43443 -6.24990 215 ft 17 kts 123°
2026-05-04 12:48 53.43392 -6.25000 211 ft 9 kts 239°
2026-05-04 12:48 53.43388 -6.25215 218 ft 23 kts 275°
2026-05-04 12:48 53.43403 -6.25489 215 ft 21 kts 275°
2026-05-04 12:49 53.43388 -6.25643 212 ft 12 kts 219°
2026-05-04 12:49 53.43322 -6.25627 214 ft 10 kts 156°
2026-05-04 12:49 53.43239 -6.25566 215 ft 16 kts 156°
2026-05-04 12:49 53.43140 -6.25493 211 ft 15 kts 156°
2026-05-04 12:50 53.43050 -6.25427 217 ft 13 kts 156°
2026-05-04 12:50 53.42974 -6.25371 212 ft 11 kts 156°
2026-05-04 12:50 53.42904 -6.25320 213 ft 14 kts 156°
2026-05-04 12:50 53.42788 -6.25233 214 ft 20 kts 156°
2026-05-04 12:51 53.42700 -6.25117 211 ft 16 kts 137°
2026-05-04 12:51 53.42606 -6.25038 215 ft 10 kts 157°
2026-05-04 12:51 53.42576 -6.25017 217 ft 1 kts 157°
2026-05-04 12:51 53.42551 -6.24960 211 ft 9 kts 89°
2026-05-04 12:52 53.42561 -6.24872 211 ft 7 kts 84°
2026-05-04 12:52 53.42548 -6.24774 211 ft 11 kts 80°
2026-05-04 12:52 53.42566 -6.24689 211 ft 3 kts 70°
2026-05-04 12:52 53.42567 -6.24683 220 ft 0 kts 70°